Location: Ústí nad Labem
(50.6611°N, 14.0531°E)
Time: 17:17:38
(UTC+02:00)

S-56A Canister/Altair - Pass Details

Date: 18 April 2024
Orbit: 638 x 2488 km, 38.9° (Epoch: 25 May)

Event Time Altitude Azimuth Distance (km) Brightness Sun altitude
Rises 00:40:34 0° 270° (W) 4,660 11.6 -28.2°
Reaches altitude 10° 00:44:23 10° 255° (WSW) 3,979 11.0 -28.3°
Enters shadow 00:48:32 19° 232° (SW) 3,620 10.6 -28.3°
